[[{"header":{"parameterUnit":"m.s-1","parameterCategory":1,"la1":30.2991,"la2":30.254,"lo1":-89.0895,"lo2":-89.0444,"dy":0.0017,"dx":0.0017,"nx":28,"ny":28,"refTime":"2023-09-03T09:00:00:Z","depth":0,"parameterNumber":2,"parameterNumberName":"U-component_of_WINDS"},"data":[0,0,0,0,0,0,0,0,0,0,0,0,0,0,0,0,0,0,0,0,0,0,0,0,0,0,0,0,0,0,0,0,0,0,0,0,0,0,0,0,0,0,0,0,0,0,0,0,0,0,0,0,0,0,0,0,0,0,-2.657,-2.657,0,-2.6543,-2.6543,-2.6543,-2.6437,-2.6435,-2.6432,-2.643,-2.6405,-2.6407,-2.6409,0,0,0,0,0,0,0,0,0,0,0,0,0,-2.6531,-2.6533,-2.657,-2.657,-2.657,-2.6544,-2.6543,-2.6543,-2.6438,-2.6435,-2.6432,-2.6429,-2.6405,-2.6407,-2.6409,0,0,0,0,0,0,0,0,0,0,0,0,0,-2.6531,-2.6533,-2.657,-2.6514,-2.6509,-2.6544,-2.6543,-2.6543,-2.6438,-2.6434,-2.6431,-2.6427,-2.6404,-2.6407,-2.6409,-2.6497,0,0,-2.6416,-2.6417,0,0,0,0,0,0,0,0,-2.6531,-2.6533,-2.6523,-2.6518,-2.6512,-2.649,-2.652,-2.6528,-2.6439,-2.6465,-2.643,-2.6426,-2.6437,-2.6436,-2.6439,-2.6496,-2.6495,-2.6417,-2.6418,-2.6419,-2.642,0,0,0,0,0,0,0,-2.6531,-2.6533,-2.656,-2.6523,-2.6516,-2.649,-2.6486,-2.6521,-2.6472,-2.6462,-2.6455,-2.6453,-2.6433,-2.6437,-2.6438,-2.6495,-2.6417,-2.6419,-2.642,-2.6421,-2.662,-2.6624,0,0,0,0,0,0,-2.6539,-2.6534,-2.6561,-2.6559,-2.6513,-2.6494,-2.6489,-2.6501,-2.6471,-2.6463,-2.6456,-2.6448,-2.6435,-2.6435,-2.6437,-2.6537,-2.6419,-2.6421,-2.6423,-2.6617,-2.6621,-2.6625,0,0,0,0,0,0,-2.6539,-2.6543,-2.6562,-2.6544,-2.6545,-2.6498,-2.6512,-2.6502,-2.6506,-2.6466,-2.6457,-2.6469,-2.6432,-2.6433,-2.6482,-2.6534,-2.6422,-2.6425,-2.6612,-2.6618,-2.6623,-2.6739,0,0,0,0,0,0,-2.6538,-2.6543,-2.6576,-2.6546,-2.6546,-2.6608,-2.6515,-2.6504,-2.651,-2.6499,-2.6476,-2.6469,-2.6429,-2.6479,-2.6485,-2.6536,-2.6427,-2.6607,-2.6615,-2.6622,-2.673,-2.6748,-2.6763,0,0,0,0,0,-2.6537,-2.6611,-2.6578,-2.6582,-2.6586,-2.6611,-2.6611,-2.6563,-2.6515,-2.6548,-2.6521,-2.647,-2.6528,-2.6485,-2.649,-2.6543,-2.6604,-2.6613,-2.6621,-2.6723,-2.6744,-2.6762,0,0,0,0,0,0,-2.665,-2.6606,-2.6569,-2.6635,-2.6628,-2.6593,-2.6633,-2.6588,-2.6595,-2.6585,-2.6526,-2.6521,-2.6579,-2.6566,-2.6519,-2.6626,-2.6557,-2.6567,-2.6632,-2.6653,-2.6669,-2.6671,-2.6429,0,0,0,0,0,-2.6683,-2.6706,-2.6666,-2.6728,-2.6726,-2.6681,-2.669,-2.6653,-2.6643,-2.664,-2.6617,-2.661,-2.6626,-2.6639,-2.6652,-2.6727,-2.672,-2.6766,-2.6782,-2.6796,-2.6806,-2.6843,-2.6863,-2.6654,-2.6654,-2.6654,0,0,-2.675,-2.6729,-2.6747,-2.675,-2.674,-2.6765,-2.6679,-2.671,-2.6728,-2.6645,-2.6689,-2.6672,-2.666,-2.6723,-2.6749,-2.6714,-2.6861,-2.6807,-2.6818,-2.682,-2.6854,-2.6874,-2.6892,-2.666,-2.6659,-2.6658,0,0,-2.6886,-2.6873,-2.6922,-2.6913,-2.6897,-2.6866,-2.6878,-2.685,-2.6835,-2.6879,-2.6816,-2.6837,-2.6867,-2.6861,-2.6861,-2.6993,-2.6945,-2.6998,-2.7084,-2.7122,-2.7138,-2.7152,-2.7198,-2.7216,-2.7008,-2.7008,-2.7009,0,-2.6973,-2.7008,-2.6954,-2.6988,-2.6991,-2.6914,-2.6963,-2.6958,-2.6948,-2.6952,-2.6912,-2.6946,-2.6933,-2.6992,-2.7024,-2.7027,-2.7039,-2.7001,-2.714,-2.7154,-2.7166,-2.7209,-2.7227,-2.7015,-2.7014,-2.7014,-2.7013,0,-2.7114,-2.714,-2.7181,-2.7172,-2.7179,-2.7221,-2.7173,-2.7187,-2.7149,-2.7123,-2.7167,-2.7148,-2.7155,-2.7166,-2.7131,-2.722,-2.7198,-2.715,-2.708,-2.7194,-2.7233,-2.7249,-2.7024,-2.7022,-2.702,-2.7018,0,0,-2.7323,-2.7281,-2.7297,-2.7291,-2.7267,-2.7286,-2.7324,-2.7329,-2.7342,-2.7338,-2.7368,-2.7394,-2.7348,-2.7349,-2.7312,-2.7345,-2.7448,-2.7292,-2.7291,-2.7321,-2.7544,-2.758,-2.7601,-2.7416,-2.7419,-2.7421,-2.7545,0,-2.7452,-2.7513,-2.7464,-2.7535,-2.7557,-2.7483,-2.7516,-2.7506,-2.7481,-2.7496,-2.747,-2.7488,-2.7427,-2.7427,-2.7456,-2.743,-2.7492,-2.742,-2.7444,-2.7445,-2.7449,-2.7621,-2.766,-2.7778,-2.756,-2.7563,-2.7565,0,-2.7611,-2.7611,-2.7684,-2.7653,-2.766,-2.7691,-2.7691,-2.7706,-2.7692,-2.7672,-2.7672,-2.7625,-2.766,-2.7591,-2.7638,-2.759,-2.7596,-2.7585,-2.7588,-2.7588,-2.7512,-2.7626,-2.7814,-2.7832,-2.7589,-2.7587,-2.7585,0,-2.7754,-2.7773,-2.7818,-2.7815,-2.7782,-2.7804,-2.7791,-2.7773,-2.7779,-2.7779,-2.7782,-2.7787,-2.779,-2.7795,-2.7751,-2.7705,-2.7803,-2.7731,-2.7787,-2.7789,-2.7812,-2.7811,-2.8004,-2.7817,-2.7817,-2.7817,-2.7816,0,-2.7903,-2.795,-2.7882,-2.791,-2.796,-2.7903,-2.7954,-2.7934,-2.7918,-2.7941,-2.7878,-2.7901,-2.7841,-2.7857,-2.7823,-2.7867,-2.7869,-2.7853,-2.7844,-2.7859,-2.7861,-2.7862,-2.7853,-2.7821,-2.782,-2.7819,-2.7818,0,-2.8073,-2.8029,-2.8073,-2.8036,-2.8028,-2.8066,-2.8035,-2.8059,-2.8029,-2.8059,-2.8062,-2.8017,-2.8032,-2.7988,-2.7998,-2.7975,-2.8038,-2.8015,-2.8042,-2.8035,-2.8094,-2.8089,-2.8294,-2.8318,-2.8117,-2.8119,-2.8121,0,-2.8171,-2.8204,-2.817,-2.818,-2.817,-2.8187,-2.8192,-2.8137,-2.8144,-2.8129,-2.8156,-2.8166,-2.8171,-2.82,-2.8168,-2.8175,-2.8151,-2.8223,-2.8152,-2.8165,-2.8151,-2.815,-2.8152,-2.8237,-2.824,-2.8242,-2.8244,0,-2.8349,-2.8324,-2.8333,-2.8334,-2.8341,-2.8339,-2.8333,-2.8345,-2.8286,-2.8297,-2.8312,-2.8316,-2.8324,-2.8335,-2.8334,-2.8321,-2.8273,-2.8266,-2.8279,-2.8295,-2.8309,-2.8301,-2.8082,-2.8261,-2.826,-2.8258,-2.8257,-2.8257,-2.8484,-2.851,-2.849,-2.8501,-2.849,-2.8485,-2.8506,-2.8477,-2.8488,-2.849,-2.8457,-2.8478,-2.8461,-2.8455,-2.8447,-2.8462,-2.843,-2.845,-2.8454,-2.846,-2.8469,-2.8306,-2.8462,-2.8462,-2.8461,-2.8461,-2.846,0,-2.8658,-2.8641,-2.8651,-2.8644,-2.8652,-2.8604,-2.8594,-2.8605,-2.8624,-2.8612,-2.8618,-2.8634,-2.8643,-2.8611,-2.8616,-2.8635,-2.8613,-2.8638,-2.8636,-2.8634,-2.8499,-2.8486,-2.8656,-2.8656,-2.8656,-2.8656,-2.8656,-2.8656,-2.875,-2.879,-2.8764,-2.8798,-2.878,-2.8799,-2.8798,-2.8793,-2.8783,-2.8803,-2.881,-2.8788,-2.8768,-2.8771,-2.8777,-2.8767,-2.8772,-2.8805,-2.8788,-2.8663,-2.8644,-2.8625,-2.8613,-2.8807,-2.8807,-2.8921,-2.8922,-2.8923]},{"header":{"parameterUnit":"m.s-1","parameterCategory":1,"la1":30.2991,"la2":30.254,"lo1":-89.0895,"lo2":-89.0444,"dy":0.0017,"dx":0.0017,"nx":28,"ny":28,"refTime":"2023-09-03T09:00:00:Z","depth":0,"parameterNumber":3,"parameterNumberName":"V-component_of_WINDS"},"data":[0,0,0,0,0,0,0,0,0,0,0,0,0,0,0,0,0,0,0,0,0,0,0,0,0,0,0,0,0,0,0,0,0,0,0,0,0,0,0,0,0,0,0,0,0,0,0,0,0,0,0,0,0,0,0,0,0,0,-1.8067,-1.8068,0,-1.8167,-1.8168,-1.817,-1.8236,-1.8236,-1.8237,-1.8237,-1.8337,-1.834,-1.8342,0,0,0,0,0,0,0,0,0,0,0,0,0,-1.793,-1.7932,-1.8067,-1.8068,-1.8069,-1.8167,-1.8168,-1.817,-1.8236,-1.8236,-1.8237,-1.8237,-1.8337,-1.8339,-1.8342,0,0,0,0,0,0,0,0,0,0,0,0,0,-1.8005,-1.7933,-1.8067,-1.8114,-1.8119,-1.8167,-1.8169,-1.817,-1.8236,-1.8236,-1.8237,-1.8238,-1.8336,-1.8339,-1.8342,-1.835,0,0,-1.8353,-1.8354,0,0,0,0,0,0,0,0,-1.8001,-1.801,-1.8106,-1.8111,-1.8117,-1.819,-1.8157,-1.823,-1.8235,-1.8191,-1.8237,-1.8238,-1.8288,-1.8295,-1.8312,-1.8355,-1.8359,-1.8353,-1.8355,-1.8357,-1.8357,0,0,0,0,0,0,0,-1.7996,-1.8006,-1.8107,-1.8107,-1.8114,-1.813,-1.8141,-1.8171,-1.8234,-1.8195,-1.82,-1.8211,-1.8291,-1.8309,-1.8315,-1.836,-1.8353,-1.8356,-1.8358,-1.8359,-1.8412,-1.8411,0,0,0,0,0,0,-1.7983,-1.8002,-1.8103,-1.811,-1.806,-1.8131,-1.8144,-1.8166,-1.8234,-1.8245,-1.8211,-1.8214,-1.8303,-1.8311,-1.8319,-1.8331,-1.8357,-1.836,-1.8362,-1.8413,-1.8412,-1.8411,0,0,0,0,0,0,-1.798,-1.7992,-1.8099,-1.8057,-1.8072,-1.8133,-1.8157,-1.8167,-1.8186,-1.8246,-1.8257,-1.8218,-1.8304,-1.8314,-1.8341,-1.8335,-1.8361,-1.8364,-1.8413,-1.8412,-1.8412,-1.8355,0,0,0,0,0,0,-1.7976,-1.799,-1.7994,-1.8057,-1.8074,-1.8121,-1.8156,-1.8169,-1.8191,-1.8197,-1.8256,-1.8266,-1.8305,-1.8336,-1.8345,-1.834,-1.8367,-1.8414,-1.8413,-1.8412,-1.8358,-1.8353,-1.8348,0,0,0,0,0,-1.7971,-1.7974,-1.7994,-1.8006,-1.8081,-1.8121,-1.813,-1.8176,-1.8191,-1.8195,-1.8233,-1.8264,-1.8335,-1.8338,-1.8349,-1.8345,-1.8415,-1.8413,-1.8412,-1.836,-1.8354,-1.8348,0,0,0,0,0,0,-1.7909,-1.7984,-1.8006,-1.8031,-1.8069,-1.8132,-1.8138,-1.8167,-1.8202,-1.8205,-1.8259,-1.8272,-1.8293,-1.8322,-1.8325,-1.8355,-1.8378,-1.8379,-1.8335,-1.833,-1.8325,-1.8317,-1.837,0,0,0,0,0,-1.7899,-1.7926,-1.7989,-1.8004,-1.8022,-1.8077,-1.8096,-1.8127,-1.8169,-1.8185,-1.8226,-1.8264,-1.8295,-1.8314,-1.8346,-1.8363,-1.8376,-1.8365,-1.836,-1.8356,-1.8355,-1.8365,-1.836,-1.8407,-1.8407,-1.8407,0,0,-1.7877,-1.7921,-1.7934,-1.7993,-1.8026,-1.8052,-1.809,-1.8116,-1.8135,-1.8189,-1.8217,-1.8248,-1.8295,-1.8316,-1.8328,-1.8341,-1.8346,-1.8354,-1.835,-1.8352,-1.8363,-1.8358,-1.8354,-1.8406,-1.8406,-1.8406,0,0,-1.785,-1.7886,-1.7902,-1.7935,-1.7985,-1.8021,-1.8025,-1.8083,-1.8106,-1.8135,-1.8176,-1.8199,-1.8252,-1.8282,-1.8305,-1.8288,-1.8317,-1.8297,-1.827,-1.8279,-1.8275,-1.8272,-1.8265,-1.8262,-1.8297,-1.8297,-1.8297,0,-1.7816,-1.7857,-1.7906,-1.793,-1.7953,-1.8004,-1.802,-1.8049,-1.8106,-1.8121,-1.8135,-1.8201,-1.8236,-1.8265,-1.826,-1.8278,-1.8282,-1.829,-1.8272,-1.827,-1.8267,-1.8261,-1.8258,-1.8294,-1.8294,-1.8294,-1.8295,0,-1.7812,-1.784,-1.7846,-1.7901,-1.7926,-1.7945,-1.7996,-1.8015,-1.8044,-1.8078,-1.8106,-1.815,-1.8191,-1.82,-1.8229,-1.8233,-1.8239,-1.8262,-1.8286,-1.8259,-1.8254,-1.8252,-1.829,-1.8291,-1.8292,-1.8292,0,0,-1.7748,-1.783,-1.7831,-1.7856,-1.7915,-1.7937,-1.7958,-1.7998,-1.8012,-1.805,-1.8068,-1.8111,-1.8132,-1.8157,-1.819,-1.8198,-1.818,-1.822,-1.8222,-1.8209,-1.8184,-1.8166,-1.8162,-1.82,-1.82,-1.8199,-1.818,0,-1.7729,-1.777,-1.7815,-1.7839,-1.7865,-1.7913,-1.7931,-1.7968,-1.8001,-1.8026,-1.8062,-1.809,-1.8117,-1.8133,-1.8142,-1.818,-1.8175,-1.8182,-1.8215,-1.8216,-1.8201,-1.816,-1.814,-1.812,-1.8178,-1.8178,-1.8178,0,-1.7712,-1.7747,-1.7774,-1.783,-1.7842,-1.7857,-1.7897,-1.7922,-1.7964,-1.7987,-1.8015,-1.805,-1.8073,-1.8095,-1.8127,-1.8131,-1.8147,-1.8167,-1.8168,-1.8171,-1.8194,-1.816,-1.8115,-1.8111,-1.8175,-1.8176,-1.8176,0,-1.766,-1.7715,-1.7738,-1.7758,-1.7824,-1.7833,-1.7861,-1.7904,-1.7925,-1.796,-1.7974,-1.8011,-1.803,-1.8057,-1.8101,-1.8113,-1.8127,-1.8153,-1.8145,-1.8144,-1.8145,-1.8144,-1.8099,-1.8158,-1.8158,-1.8158,-1.8158,0,-1.7633,-1.7647,-1.7716,-1.773,-1.7747,-1.7798,-1.7813,-1.7845,-1.7883,-1.7903,-1.7947,-1.7965,-1.8022,-1.8046,-1.808,-1.81,-1.8109,-1.8127,-1.8136,-1.8122,-1.812,-1.8133,-1.8134,-1.8157,-1.8158,-1.8158,-1.8158,0,-1.7578,-1.7625,-1.7653,-1.7713,-1.7728,-1.7738,-1.7788,-1.7803,-1.7838,-1.7863,-1.7871,-1.7926,-1.7956,-1.8003,-1.8047,-1.807,-1.8084,-1.8099,-1.8069,-1.8074,-1.8063,-1.8062,-1.8024,-1.802,-1.8082,-1.8081,-1.8081,0,-1.7557,-1.7569,-1.763,-1.7647,-1.7673,-1.77,-1.7721,-1.7772,-1.7792,-1.7841,-1.7849,-1.7883,-1.7913,-1.796,-1.8002,-1.8036,-1.8051,-1.8035,-1.8057,-1.8042,-1.8049,-1.8047,-1.8048,-1.803,-1.8029,-1.8028,-1.8027,0,-1.7513,-1.7536,-1.7566,-1.7603,-1.7628,-1.7659,-1.7693,-1.7704,-1.7762,-1.7782,-1.7814,-1.7837,-1.7883,-1.7915,-1.7955,-1.7982,-1.8013,-1.8021,-1.802,-1.8006,-1.7987,-1.7995,-1.8054,-1.8021,-1.8022,-1.8022,-1.8022,-1.8023,-1.7474,-1.7486,-1.753,-1.7562,-1.7592,-1.7623,-1.7639,-1.7676,-1.7704,-1.7745,-1.7773,-1.7803,-1.7844,-1.7901,-1.7926,-1.7949,-1.7963,-1.7963,-1.7963,-1.7961,-1.7956,-1.7985,-1.7957,-1.7957,-1.7958,-1.7958,-1.7958,0,-1.7431,-1.7462,-1.749,-1.7536,-1.756,-1.7589,-1.7628,-1.7645,-1.7671,-1.7708,-1.7736,-1.7772,-1.7804,-1.7849,-1.7884,-1.7893,-1.7908,-1.79,-1.7899,-1.7905,-1.7942,-1.7938,-1.7888,-1.7888,-1.7888,-1.7888,-1.7888,-1.7888,-1.7411,-1.7433,-1.746,-1.7497,-1.7528,-1.7558,-1.7578,-1.7605,-1.7634,-1.7673,-1.7699,-1.7729,-1.7768,-1.7806,-1.7836,-1.7849,-1.7858,-1.7845,-1.7862,-1.7896,-1.7902,-1.7908,-1.7905,-1.7848,-1.7848,-1.7822,-1.7822,-1.7822]}]]